Lake Clear, NY

12:31 PM EST on February 27, 2017 (GMT -0500)
Adirondack Regional

Weather History for KSLK - April, 2013

Change the Weather History Date:

Wednesday, April 24, 2013

  Actual Average Record
Temperature  
Mean Temperature 47 °F 42 °F  
Max Temperature 72 °F 55 °F 72 °F (1957)
Min Temperature 22 °F 29 °F 17 °F (2016)
Degree Days  
Heating Degree Days 18 23  
Month to date heating degree days 704 679  
Since 1 July heating degree days 8222 8641  
Cooling Degree Days 0 0  
Month to date cooling degree days 0 0  
Year to date cooling degree days 0 0  
Moisture  
Dew Point 34 °F    
Average Humidity 63    
Maximum Humidity 100    
Minimum Humidity 26    
Precipitation  
Precipitation 0.25 in 0.09 in 0.91 in (1977)
Month to date precipitation 2.45 2.26  
Year to date precipitation 5.19 8.28  
Sea Level Pressure  
Sea Level Pressure 29.84 in    
Wind  
Wind Speed 10 mph (SW)    
Max Wind Speed 28 mph    
Max Gust Speed 39 mph    
Visibility 8 miles    
Events Fog , Rain    
T = Trace of Precipitation, MM = Missing Value Source: NWS Daily Summary

Daily Weather History Graph

Daily Weather History Graph

Search for Another Location

Airport or City:

Trip Planner

Search our weather history database for the weather conditions in past years. The results will help you decide how hot, cold, wet, or windy it might be!

Date:

Astronomy

Apr. 24, 2013 Rise Set
Actual Time 5:57 AM EDT 7:52 PM EDT
Civil Twilight 5:26 AM EDT 8:24 PM EDT
Nautical Twilight 4:48 AM EDT 9:02 PM EDT
Astronomical Twilight 4:07 AM EDT 9:44 PM EDT
Moon 6:51 PM EDT (4/24) 5:02 AM EDT (4/24)
Length of Visible Light 14h 57m
Length of Day
13h 54m
Waxing Gibbous, 98% of the Moon is Illuminated
Apr 24
Waxing Gibbous
Apr 25
Full
May 2
Last Quarter
May 9
New
May 18
First Quarter

Hourly Weather History & Observations

Time (EDT) Temp. Windchill Dew Point Humidity Pressure Visibility Wind Dir Wind Speed Gust Speed Precip Events Conditions
12:51 AM 28.0 °F - 26.1 °F 92% 30.07 in 10.0 mi Calm Calm - N/A   Clear
1:51 AM 27.0 °F - 25.0 °F 92% 30.05 in 9.0 mi Calm Calm - N/A   Clear
2:51 AM 27.0 °F - 26.1 °F 96% 30.03 in 8.0 mi Calm Calm - N/A   Clear
3:51 AM 26.1 °F - 25.0 °F 96% 30.02 in 9.0 mi Calm Calm - N/A   Clear
4:11 AM 24.8 °F - 21.2 °F 86% 29.98 in 10.0 mi Calm Calm - N/A   Scattered Clouds
4:19 AM 24.8 °F - 23.0 °F 93% 29.98 in 10.0 mi Calm Calm - N/A   Mostly Cloudy
4:49 AM 24.8 °F - 21.2 °F 86% 29.97 in 10.0 mi Calm Calm - N/A   Scattered Clouds
4:51 AM 24.1 °F - 23.0 °F 96% 30.01 in 10.0 mi Calm Calm - N/A   Scattered Clouds
5:44 AM 23.0 °F - 21.2 °F 93% 29.96 in 8.0 mi Calm Calm - N/A   Mostly Cloudy
5:47 AM 23.0 °F - 21.2 °F 93% 29.96 in 1.8 mi Calm Calm - N/A   Mostly Cloudy
5:49 AM 21.2 °F - 21.2 °F 100% 29.96 in 0.8 mi Calm Calm - N/A   Mist
5:51 AM 21.9 °F - 21.0 °F 96% 30.00 in 0.5 mi Calm Calm - N/A Fog Light Freezing Fog
6:16 AM 23.0 °F - 21.2 °F 93% 29.95 in 0.2 mi Calm Calm - N/A Fog Light Freezing Fog
6:29 AM 24.8 °F - 23.0 °F 93% 29.95 in 1.5 mi Calm Calm - N/A   Scattered Clouds
6:36 AM 24.8 °F - 21.2 °F 86% 29.95 in 9.0 mi Calm Calm - N/A   Partly Cloudy
6:51 AM 26.1 °F - 24.1 °F 92% 29.99 in 10.0 mi Calm Calm - N/A   Clear
7:51 AM 37.0 °F 34.5 °F 34.0 °F 89% 29.97 in 10.0 mi ESE 3.5 mph - N/A   Clear
8:51 AM 48.0 °F - 37.0 °F 66% 29.94 in 10.0 mi SSW 5.8 mph - N/A   Clear
9:51 AM 55.9 °F - 35.1 °F 45% 29.91 in 10.0 mi SSW 6.9 mph - N/A   Clear
10:51 AM 60.1 °F - 34.0 °F 38% 29.87 in 10.0 mi SW 5.8 mph - N/A   Clear
11:51 AM 66.0 °F - 33.1 °F 29% 29.84 in 10.0 mi SW 11.5 mph 17.3 mph N/A   Clear
12:51 PM 66.9 °F - 34.0 °F 30% 29.79 in 10.0 mi SSW 16.1 mph 24.2 mph N/A   Clear
1:51 PM 70.0 °F - 33.1 °F 26% 29.74 in 10.0 mi SSW 16.1 mph 23.0 mph N/A   Clear
2:51 PM 69.1 °F - 33.1 °F 26% 29.73 in 10.0 mi SSW 19.6 mph 27.6 mph N/A   Partly Cloudy
3:51 PM 70.0 °F - 36.0 °F 29% 29.70 in 10.0 mi SW 16.1 mph 24.2 mph N/A   Overcast
4:51 PM 68.0 °F - 39.9 °F 36% 29.68 in 10.0 mi SW 12.7 mph - N/A   Overcast
5:51 PM 57.9 °F - 50.0 °F 75% 29.72 in 10.0 mi SSW 10.4 mph - 0.01 in   Overcast
6:51 PM 60.1 °F - 48.0 °F 64% 29.68 in 9.0 mi SSW 15.0 mph 28.8 mph 0.00 in Rain Light Rain
7:51 PM 60.1 °F - 48.0 °F 64% 29.65 in 10.0 mi SW 17.3 mph 29.9 mph 0.00 in   Overcast
8:51 PM 55.0 °F - 52.0 °F 89% 29.65 in 5.0 mi SSW 9.2 mph - 0.03 in Rain Rain
9:15 PM 55.4 °F - 51.8 °F 88% 29.67 in 5.0 mi SSW 17.3 mph 23.0 mph 0.05 in Rain Rain
9:27 PM 53.6 °F - 51.8 °F 94% 29.66 in 5.0 mi SSW 17.3 mph 27.6 mph 0.07 in Rain Rain
9:51 PM 54.0 °F - 51.1 °F 90% 29.65 in 10.0 mi South 13.8 mph 26.5 mph 0.09 in Rain Light Rain
10:51 PM 51.1 °F - 48.9 °F 92% 29.65 in 2.5 mi WSW 15.0 mph 27.6 mph 0.06 in Rain Rain
10:53 PM 51.8 °F - 48.2 °F 88% 29.65 in 3.0 mi WSW 11.5 mph 27.6 mph 0.00 in Rain Rain
11:01 PM 50.0 °F - 48.2 °F 94% 29.66 in 6.0 mi WSW 13.8 mph 23.0 mph 0.01 in Rain Light Rain
11:51 PM 46.0 °F 38.8 °F 42.1 °F 86% 29.70 in 9.0 mi WSW 18.4 mph 32.2 mph 0.06 in Rain Light Rain
11:58 PM 44.6 °F 37.2 °F 41.0 °F 87% 29.70 in 10.0 mi WSW 17.3 mph 32.2 mph 0.00 in Rain Light Rain